EW1836 Weather Reports


Display with metric or nautical units.
time (UTC)temp
F
wind
direction
speed
MPH
gust
MPH
rain 1hr
in
rain 24hr
in
rain mn
in
humidity
%
barometer
mb
20210917171555 76 167 0.0 0.0 0.00 0.12 0.00 92 1021.2
20210917170048 76 167 0.0 0.0 0.00 0.12 0.00 91 1021.3
20210917164531 76 188 0.0 0.0 0.00 0.12 0.00 90 1021.3
20210917163119 76 188 0.0 2.0 0.00 0.12 0.00 89 1021.3
20210917161532 76 227 0.0 1.0 0.00 0.12 0.00 89 1021.5
20210917160039 76 172 0.0 2.0 0.00 0.12 0.00 89 1021.6
20210917154553 76 182 0.0 4.0 0.00 0.12 0.00 90 1021.5
20210917153027 75 178 0.0 3.0 0.00 0.12 0.00 91 1021.6
20210917151519 74 150 0.0 2.0 0.00 0.12 0.00 92 1021.5
20210917150054 74 165 0.0 2.0 0.00 0.12 0.00 92 1021.3
20210917144512 73 43 0.0 3.0 0.00 0.12 0.00 94 1021.2
20210917143005 73 200 0.0 1.0 0.00 0.12 0.00 94 1021.1
20210917141502 73 174 0.0 4.0 0.00 0.12 0.00 94 1020.9
20210917140154 72 185 0.0 2.0 0.00 0.12 0.00 95 1020.8
20210917134619 72 170 0.0 4.0 0.00 0.12 0.00 95 1020.6
20210917133322 71 159 0.0 3.0 0.00 0.12 0.00 95 1020.4
20210917131557 71 178 0.0 2.0 0.00 0.12 0.00 95 1020.4
20210917130314 71 177 0.0 2.0 0.00 0.12 0.00 96 1020.0
20210917124738 70 128 0.0 0.0 0.00 0.13 0.00 96 1020.1
20210917123050 70 113 0.0 4.0 0.00 0.13 0.00 96 1020.1
20210917121608 70 168 0.0 0.0 0.00 0.13 0.00 96 1020.0
20210917120049 70 182 0.0 0.0 0.00 0.13 0.00 96 1019.9
20210917114653 70 182 0.0 0.0 0.00 0.14 0.00 96 1019.7
20210917113118 70 182 0.0 0.0 0.00 0.14 0.00 96 1019.6
20210917111549 70 219 0.0 1.0 0.00 0.14 0.00 96 1019.4
20210917110049 70 219 0.0 0.0 0.00 0.14 0.00 96 1019.5
20210917104619 70 207 0.0 0.0 0.00 0.15 0.00 96 1019.2
20210917103045 70 207 0.0 0.0 0.00 0.15 0.00 96 1019.1
20210917101605 70 207 0.0 0.0 0.00 0.15 0.00 96 1018.9
20210917100032 70 207 0.0 0.0 0.00 0.15 0.00 96 1018.7
20210917094532 70 208 0.0 0.0 0.00 0.16 0.00 95 1018.5
20210917093040 70 208 0.0 0.0 0.00 0.16 0.00 96 1018.5
20210917091542 70 208 0.0 0.0 0.00 0.16 0.00 96 1018.5
20210917090029 70 208 0.0 0.0 0.00 0.16 0.00 96 1018.2
20210917084545 70 208 0.0 0.0 0.00 0.16 0.00 96 1018.2
20210917083107 70 210 0.0 0.0 0.00 0.16 0.00 96 1018.2
20210917081559 70 210 0.0 0.0 0.00 0.16 0.00 95 1018.3
20210917080021 70 192 0.0 0.0 0.00 0.16 0.00 95 1018.1
20210917074534 71 190 0.0 0.0 0.00 0.16 0.00 96 1017.9
20210917073018 71 190 0.0 0.0 0.00 0.16 0.00 96 1018.2
20210917071543 71 192 0.0 0.0 0.00 0.16 0.00 96 1018.4
20210917070018 71 192 0.0 0.0 0.00 0.16 0.00 95 1018.5
20210917064525 71 192 0.0 0.0 0.00 0.17 0.00 96 1018.5
20210917063046 71 192 0.0 0.0 0.00 0.17 0.00 95 1018.6
20210917061525 71 216 0.0 0.0 0.00 0.17 0.00 95 1018.6
20210917060042 71 158 0.0 2.0 0.00 0.17 0.00 95 1018.7
20210917054551 71 161 0.0 3.0 0.00 0.17 0.00 95 1018.8
20210917053017 71 169 0.0 0.0 0.00 0.17 0.00 95 1018.8
20210917051533 71 169 0.0 0.0 0.00 0.17 0.00 95 1018.9
20210917050007 71 215 0.0 2.0 0.00 0.17 0.00 95 1018.8
20210917044506 71 192 0.0 2.0 0.00 0.17 0.00 95 1018.6
20210917043014 71 218 0.0 4.0 0.00 0.17 0.00 95 1018.6
20210917041508 71 201 0.0 3.0 0.00 0.17 0.00 95 1018.6
20210917040036 71 182 0.0 4.0 0.00 0.17 0.00 95 1018.6
20210917034502 71 192 0.0 5.0 0.00 0.17 0.17 95 1018.7
20210917033248 71 178 1.0 6.0 0.00 0.17 0.17 95 1018.6
20210917033003 71 200 0.0 1.0 0.00 0.17 0.17 95 1018.6
20210917031501 71 254 0.0 2.0 0.00 0.17 0.17 95 1018.7
20210917030212 71 198 0.0 2.0 0.00 0.17 0.17 95 1018.6
20210917024624 71 262 0.0 0.0 0.00 0.18 0.17 95 1018.8
20210917023054 71 290 0.0 2.0 0.00 0.18 0.17 95 1018.8
20210917021539 71 271 0.0 0.0 0.00 0.18 0.17 95 1018.9
20210917020117 71 301 0.0 5.0 0.00 0.18 0.17 95 1018.7
20210917014556 71 173 0.0 0.0 0.00 0.20 0.17 95 1018.6
20210917013124 71 167 0.0 0.0 0.00 0.20 0.17 95 1018.6
20210917010044 71 296 0.0 2.0 0.00 0.20 0.17 95 1018.1
20210917004524 72 196 0.0 1.0 0.00 0.24 0.17 95 1017.8
20210917001534 72 174 0.0 0.0 0.00 0.24 0.17 95 1017.3
20210916234530 72 205 0.0 0.0 0.00 0.30 0.17 94 1017.1
20210916233041 72 205 0.0 0.0 0.00 0.30 0.17 94 1017.1
20210916231554 73 203 0.0 1.0 0.00 0.30 0.17 94 1016.9
20210916230033 73 200 0.0 0.0 0.01 0.30 0.17 93 1016.8
20210916224613 73 199 0.0 0.0 0.01 0.35 0.17 92 1016.8
20210916223107 74 199 0.0 0.0 0.01 0.35 0.17 91 1016.7
20210916221534 74 198 0.0 2.0 0.01 0.35 0.17 91 1016.6
20210916220046 75 153 0.0 6.0 0.01 0.34 0.16 91 1016.5
20210916214527 75 281 0.0 2.0 0.02 0.37 0.16 92 1016.4
20210916213125 75 355 0.0 4.0 0.02 0.37 0.16 93 1016.3
20210916211532 75 102 0.0 0.0 0.02 0.37 0.16 92 1016.3
20210916210048 76 166 0.0 2.0 0.01 0.36 0.15 90 1016.4
20210916204534 76 331 0.0 6.0 0.00 0.37 0.14 91 1016.2
20210916203003 75 313 0.0 3.0 0.01 0.37 0.14 92 1016.3
20210916200147 75 171 0.0 3.0 0.01 0.37 0.14 91 1016.4
20210916194723 75 312 0.0 5.0 0.01 0.37 0.14 91 1016.4
20210916193211 75 307 0.0 4.0 0.01 0.36 0.13 93 1016.6
20210916191610 75 154 0.0 4.0 0.07 0.36 0.13 94 1016.7
20210916190131 74 172 0.0 2.0 0.07 0.36 0.13 93 1016.9
20210916184636 74 327 0.0 3.0 0.07 0.37 0.13 95 1017.2
20210916183106 73 116 0.0 2.0 0.07 0.36 0.12 94 1017.4
20210916181739 73 315 0.0 2.0 0.01 0.30 0.06 94 1017.6
20210916180105 73 175 0.0 3.0 0.01 0.30 0.06 95 1017.7
20210916174624 72 215 0.0 0.0 0.01 0.40 0.06 95 1017.9
20210916173113 72 155 0.0 1.0 0.00 0.39 0.05 94 1018.0